EW3989 Weather Reports


Display with metric or nautical units.
time (UTC)temp
F
wind
direction
speed
MPH
gust
MPH
rain 1hr
in
rain 24hr
in
rain mn
in
humidity
%
barometer
mb
20260503054519 47 0.0 0.0 0.00 0.00 0.00 61 1010.5
20260503053528 47 0.0 0.0 0.00 0.00 0.00 58 1010.6
20260503052528 47 0.0 0.0 0.00 0.00 0.00 60 1010.8
20260503051527 48 0.0 1.0 0.00 0.00 0.00 60 1010.8
20260503050528 48 0.0 0.0 0.00 0.00 0.00 58 1010.9
20260503045519 48 0.0 0.0 0.00 0.00 0.00 59 1010.9
20260503044547 48 0.0 0.0 0.00 0.00 0.00 61 1011.0
20260503043536 48 0.0 0.0 0.00 0.00 0.00 64 1011.1
20260503042539 47 0.0 1.0 0.00 0.00 0.00 62 1011.1
20260503041528 47 0.0 0.0 0.00 0.00 0.00 68 1011.3
20260503040519 47 0.0 0.0 0.00 0.00 0.00 67 1011.4
20260503035536 47 0.0 0.0 0.00 0.00 0.00 66 1011.3
20260503034519 47 0.0 0.0 0.00 0.00 0.00 61 1011.4
20260503033518 47 0.0 1.0 0.00 0.00 0.00 64 1011.6
20260503032519 46 0.0 0.0 0.00 0.00 0.00 69 1011.6
20260503031519 46 0.0 0.0 0.00 0.00 0.00 70 1011.8
20260503030527 46 0.0 0.0 0.00 0.00 0.00 69 1012.0
20260503025539 45 0.0 0.0 0.00 0.00 0.00 69 1012.0
20260503024536 45 0.0 0.0 0.00 0.00 0.00 69 1012.1
20260503023545 46 0.0 0.0 0.00 0.00 0.00 65 1012.0
20260503022519 46 0.0 0.0 0.00 0.00 0.00 61 1012.0
20260503021528 46 0.0 0.0 0.00 0.00 0.00 60 1012.0
20260503020519 46 0.0 0.0 0.00 0.00 0.00 60 1012.1
20260503015541 47 0.0 0.0 0.00 0.00 0.00 56 1012.1
20260503014539 48 0.0 0.0 0.00 0.00 0.00 51 1012.2
20260503013519 48 0.0 0.0 0.00 0.00 0.00 50 1012.1
20260503012519 49 0.0 0.0 0.00 0.00 0.00 50 1012.0
20260503011539 50 0.0 0.0 0.00 0.00 0.00 47 1012.0
20260503010600 51 0.0 0.0 0.00 0.00 0.00 45 1012.1
20260503005519 52 0.0 0.0 0.00 0.00 0.00 43 1012.0
20260503004527 53 0.0 0.0 0.00 0.00 0.00 43 1011.9
20260503003519 54 0.0 0.0 0.00 0.00 0.00 42 1012.0
20260503002518 55 0.0 0.0 0.00 0.00 0.00 39 1011.8
20260503001519 55 0.0 0.0 0.00 0.00 0.00 39 1011.8
20260503000527 56 0.0 3.0 0.00 0.00 0.00 39 1011.9
20260502235518 56 0.0 2.0 0.00 0.00 0.00 38 1011.8
20260502234527 57 0.0 3.0 0.00 0.00 0.00 33 1011.9
20260502233518 58 0.0 4.0 0.00 0.00 0.00 34 1011.9
20260502232530 58 0.0 0.0 0.00 0.00 0.00 33 1012.0
20260502231518 58 0.0 4.0 0.00 0.00 0.00 33 1012.0
20260502230519 58 0.0 2.0 0.00 0.00 0.00 34 1012.1
20260502225518 60 0.0 3.0 0.00 0.00 0.00 32 1012.3
20260502224559 60 0.0 1.0 0.00 0.00 0.00 32 1012.4
20260502223518 60 0.0 3.0 0.00 0.00 0.00 32 1012.6
20260502222519 60 0.0 2.0 0.00 0.00 0.00 31 1012.5
20260502221544 60 0.0 3.0 0.00 0.00 0.00 31 1012.6
20260502220518 60 0.0 1.0 0.00 0.00 0.00 31 1012.6
20260502215527 60 0.0 2.0 0.00 0.00 0.00 33 1012.6
20260502214547 60 0.0 4.0 0.00 0.00 0.00 33 1012.9
20260502213544 61 0.0 0.0 0.00 0.00 0.00 29 1013.0
20260502212518 61 0.0 2.0 0.00 0.00 0.00 31 1013.1
20260502211518 62 0.0 4.0 0.00 0.00 0.00 31 1013.2
20260502210518 62 248 1.0 6.0 0.00 0.00 0.00 30 1013.3
20260502205538 61 0.0 1.0 0.00 0.00 0.00 31 1013.4
20260502204519 62 225 1.0 8.0 0.00 0.00 0.00 34 1013.6
20260502203539 61 225 1.0 7.0 0.00 0.00 0.00 30 1013.8
20260502202518 62 225 1.0 6.0 0.00 0.00 0.00 29 1014.0
20260502201518 61 0.0 2.0 0.00 0.00 0.00 30 1013.9
20260502200518 60 225 1.0 4.0 0.00 0.00 0.00 28 1014.2
20260502195527 61 225 1.0 6.0 0.00 0.00 0.00 28 1014.2
20260502194520 61 0.0 3.0 0.00 0.00 0.00 31 1014.4
20260502193545 62 0.0 3.0 0.00 0.00 0.00 31 1014.7
20260502192518 60 0.0 4.0 0.00 0.00 0.00 35 1014.8
20260502191527 59 0.0 6.0 0.00 0.00 0.00 33 1014.8
20260502190535 59 0.0 0.0 0.00 0.00 0.00 35 1015.0
20260502185520 61 338 1.0 3.0 0.00 0.00 0.00 29 1015.2
20260502184527 60 45 1.0 3.0 0.00 0.00 0.00 31 1015.3
20260502183518 58 0.0 0.0 0.00 0.00 0.00 36 1015.5
20260502182520 60 23 1.0 7.0 0.00 0.00 0.00 31 1015.6
20260502181527 61 225 1.0 8.0 0.00 0.00 0.00 29 1015.8
20260502180518 61 0.0 4.0 0.00 0.00 0.00 31 1016.0
20260502163518 57 225 1.0 3.0 0.00 0.00 0.00 34 1016.9
20260502162725 57 203 1.0 8.0 0.00 0.00 0.00 36 1017.0
20260502162020 56 180 1.0 4.0 0.00 0.00 0.00 35 1017.0
20260502161018 56 0.0 2.0 0.00 0.00 0.00 36 1017.3
20260502152040 54 0.0 1.0 0.00 0.00 0.00 42 1017.9
20260502151100 53 0.0 0.0 0.00 0.00 0.00 37 1017.9
20260502123037 37 0.0 0.0 0.00 0.00 0.00 85 1018.9
20260502122042 35 0.0 0.0 0.00 0.00 0.00 87 1018.7
20260502121019 33 0.0 0.0 0.00 0.00 0.00 90 1018.8
20260502115029 29 0.0 0.0 0.00 0.00 0.00 90 1018.4
20260502114149 29 0.0 0.0 0.00 0.00 0.00 90 1018.3
20260502113028 28 0.0 0.0 0.00 0.00 0.00 90 1018.2
20260502112051 28 0.0 0.0 0.00 0.00 0.00 90 1018.2
20260502111019 29 0.0 0.0 0.00 0.00 0.00 90 1018.2
20260502110020 29 0.0 0.0 0.00 0.00 0.00 90 1018.2
20260502105057 29 0.0 0.0 0.00 0.00 0.00 90 1018.3
20260502104019 29 0.0 0.0 0.00 0.00 0.00 90 1018.3
20260502103020 30 0.0 0.0 0.00 0.00 0.00 90 1018.5
20260502102045 30 0.0 0.0 0.00 0.00 0.00 90 1018.5
20260502101028 30 0.0 0.0 0.00 0.00 0.00 90 1018.4
20260502091037 30 0.0 0.0 0.00 0.00 0.00 89 1018.4
20260502071036 29 0.0 0.0 0.00 0.00 0.00 89 1018.4
20260502070019 29 0.0 0.0 0.00 0.00 0.00 89 1018.5
20260502065039 30 0.0 0.0 0.00 0.00 0.00 89 1018.5
20260502064019 30 0.0 0.0 0.00 0.00 0.00 89 1018.5
20260502063019 29 0.0 0.0 0.00 0.00 0.00 89 1018.6
20260502062019 29 0.0 0.0 0.00 0.00 0.00 89 1018.6
20260502061019 29 0.0 0.0 0.00 0.00 0.00 89 1018.6